User: anonymous
Location: Salamanca
(40.9670°N, 5.6500°W)
Time: 19:30:01
(UTC+02:00)
Language:

Cosmos 1633 Rocket - Orbit

View from above orbital plane
View from above orbital plane
View from above satellite
View from above satellite

Ground track
Ground track

The orbit data is extracted from the following two-line orbital elements,

1 15593U 85020B   14244.30567788  .00000228  00000-0  24704-4 0  7415
2 15593 082.5393 136.7804 0012632 161.2000 338.6415 14.83734035593104
Epoch (UTC): 01 September 2014 07:20:10
Eccentricity: 0.0012632
inclination: 82.5393°
perigee height: 609 km
apogee height: 626 km
right ascension of ascending node: 136.7804°
argument of perigee: 161.2000°
revolutions per day: 14.83734035
mean anomaly at epoch: 338.6415°
orbit number at epoch: 59310

The dashed part of the orbit path shows where the satellite is in the earth's shadow,  

DLR